CAPE
24 10 0 0 0 0 4 0 0 0 0 0 0 0 0 0 0 0 0 0 0 0 0 0 0 0 0 0 0 0 0 0 0 0 0 0 0 0 0 0 0 0 0 0
15 1 0 1 1 1 0 0 0 0 0 0 0 0 0 0 0 0 0 0 0 0 0 0 0 0 0 0 0 0 0 0 0 0 0 0 0 0 0 0 0 0 0 0
4 0 12 0 1 3 13 0 0 0 0 0 0 0 0 0 0 0 0 0 0 0 0 0 0 0 0 0 0 0 0 0 0 0 0 0 0 0 0 0 0 0 0 0
14 19 3 0 0 3 1 12 3 0 0 0 0 0 0 0 0 0 0 0 0 0 0 0 0 0 0 0 0 0 0 0 0 0 0 0 0 0 0 0 0 0 0 0
4 21 1 10 0 0 12 0 0 0 0 0 0 0 0 0 0 0 0 0 0 0 0 0 0 0 0 0 0 0 0 0 0 0 0 0 0 0 0 0 0 0 0 0
8 26 10 0 0 8 0 0 0 0 0 0 0 0 0 0 0 0 0 0 0 0 0 0 0 0 0 0 0 0 0 0 0 0 0 0 0 0 0 0 0 0 0 0
17 40 19 2 0 0 0 0 0 0 1 0 0 0 0 0 0 0 0 0 0 0 0 0 0 0 0 0 0 0 0 0 0 0 0 0 0 0 0 0 0 0 0 0
7 25 4 0 0 0 0 0 0 0 0 0 0 0 0 0 0 0 0 0 0 0 0 0 0 0 0 0 0 0 0 0 0 0 0 0 0 0 0 0 0 0 0 2
5 4 0 0 0 0 0 0 0 0 0 0 0 0 0 0 0 0 0 0 0 0 0 0 0 0 0 0 0 0 0 0 0 0 0 0 0 0 0 0 0 0 0 1
0 0 0 0 0 0 0 0 0 0 0 0 0 0 0 0 0 0 0 0 0 0 0 0 0 0 0 0 0 0 0 0 0 0 0 3 0 0 0 0 0 1 8 13
0 0 0 0 0 0 0 0 0 0 0 0 0 0 0 0 0 0 0 0 0 0 0 0 0 0 0 0 0 0 0 0 0 0 0 0 3 14 26 29 32 42 45 44
0 0 1 0 0 0 0 0 0 0 0 0 0 0 0 0 0 0 0 0 0 0 0 0 0 0 0 0 0 0 0 0 0 0 0 0 0 0 0 21 44 44 65 42
0 0 0 1 0 0 0 0 0 0 0 0 0 0 0 0 0 0 0 0 0 0 0 0 0 0 0 0 0 0 0 0 0 0 0 0 0 0 0 0 0 4 7 6
0 0 0 0 0 0 0 0 0 0 0 0 0 0 0 0 0 0 0 0 0 0 0 0 0 0 0 0 0 0 0 0 0 0 0 0 0 0 0 0 0 0 0 0
0 0 0 0 0 0 0 0 0 0 0 0 0 0 0 0 0 0 0 0 0 0 0 0 0 0 0 0 0 0 0 0 0 0 0 0 0 0 0 0 0 0 0 0
0 0 0 0 0 0 0 0 0 0 0 0 0 0 0 0 0 0 0 0 0 0 0 0 0 0 0 0 0 0 0 0 0 0 0 0 0 0 0 0 0 0 0 0
0 0 0 0 0 0 0 0 0 0 0 0 0 0 0 0 0 0 0 0 0 0 0 0 0 0 0 0 0 0 0 0 0 0 0 0 0 0 0 0 0 0 0 0
0 0 0 0 0 0 0 0 0 0 0 0 0 0 0 0 0 0 0 0 0 0 0 0 0 0 0 0 0 0 0 0 0 0 0 0 0 0 0 0 0 0 0 0
0 0 0 0 0 0 0 0 0 0 0 0 0 0 0 0 0 0 0 0 0 0 0 0 0 0 0 0 0 0 0 0 0 0 0 0 0 0 0 0 0 0 0 0
0 0 0 0 0 0 0 0 0 0 0 0 0 0 0 0 0 0 0 0 0 0 0 0 0 0 0 0 0 0 0 0 0 0 0 0 0 0 0 0 0 0 0 0
0 0 0 0 0 0 0 0 0 0 0 0 0 0 0 0 0 0 0 0 0 0 0 0 0 0 0 0 0 0 0 0 0 0 0 0 0 0 0 0 0 0 0 0
0 0 0 0 0 0 0 0 0 0 0 0 0 0 0 0 0 0 0 0 0 0 0 0 0 0 0 0 0 0 0 0 0 0 0 0 0 0 0 0 0 0 0 0
0 0 0 0 0 0 0 0 0 0 0 0 0 0 0 0 0 0 0 0 0 0 0 0 0 0 0 0 0 0 0 0 0 0 0 0 0 0 0 0 0 0 0 0
0 0 0 0 0 0 0 0 0 0 0 0 0 0 0 0 0 0 0 0 0 0 0 0 0 0 0 0 0 0 0 0 0 0 0 0 0 0 0 0 0 0 0 0
0 0 0 0 0 0 0 0 0 0 0 0 0 0 0 0 0 0 0 0 0 0 0 0 0 0 0 0 0 0 0 0 0 0 0 0 0 0 0 0 0 0 0 0
0 0 0 0 0 0 0 0 0 0 0 0 0 0 0 0 0 0 0 0 0 0 0 0 0 0 0 0 0 0 0 0 0 0 0 0 0 0 0 0 0 0 0 0
CIN
-4 -1 -0 -0 -0 -0 -12 -0 -0 -0 -0 -0 -0 -0 -0 -0 -0 -0 -0 -0 -0 -0 -0 -0 -0 -0 -0 -0 -0 -0 -0 -0 -0 -0 -0 -0 -0 -0 -0 -0 -0 -0 -0 -0
-4 -0 -0 -2 -27 -9 -1 -0 -0 -0 -0 -0 -0 -0 -0 -0 -0 -0 -0 -0 -0 -0 -0 -0 -0 -0 -0 -0 -0 -0 -0 -0 -0 -0 -0 -0 -0 -0 -0 -0 -0 -0 -0 -0
-0 -0 -2 -0 -7 -13 -0 -1 -0 -0 -0 -0 -0 -0 -0 -0 -0 -0 -0 -0 -0 -0 -0 -0 -0 -0 -0 -0 -0 -0 -0 -0 -0 -0 -0 -0 -0 -0 -0 -0 -0 -0 -0 -0
-1 -3 -2 -0 -0 -8 -0 -13 -11 -0 -0 -0 -0 -0 -0 -0 -0 -0 -0 -0 -0 -0 -0 -0 -0 -0 -0 -0 -0 -0 -0 -0 -0 -0 -0 -0 -0 -0 -0 -0 -0 -0 -0 -0
-5 -2 -0 -1 -0 -0 -0 -0 -0 -0 -0 -0 -0 -0 -0 -0 -0 -0 -0 -0 -0 -0 -0 -0 -0 -0 -0 -0 -0 -0 -0 -0 -0 -0 -0 -0 -0 -0 -0 -0 -0 -0 -0 -0
-13 -9 -7 -0 -0 -7 -0 -0 -0 -0 -0 -0 -0 -0 -0 -0 -0 -0 -0 -0 -0 -0 -0 -0 -0 -0 -0 -0 -0 -0 -0 -0 -0 -0 -0 -0 -0 -0 -0 -0 -0 -0 -0 -0
-16 -4 -17 -12 -0 -0 -0 -0 -0 -0 -0 -0 -0 -0 -0 -0 -0 -0 -0 -0 -0 -0 -0 -0 -0 -0 -0 -0 -0 -0 -0 -0 -0 -0 -0 -0 -0 -0 -0 -0 -0 -0 -0 -0
-2 -1 -8 -4 -0 -0 -0 -16 -0 -0 -0 -0 -0 -0 -0 -0 -0 -0 -0 -0 -0 -0 -0 -0 -0 -0 -0 -0 -0 -0 -0 -0 -0 -0 -0 -0 -0 -0 -0 -0 -0 -0 -0 -234
-1 -5 -0 -0 -0 -0 -0 -0 -0 -0 -0 -0 -0 -0 -0 -0 -0 -0 -0 -0 -0 -0 -0 -0 -0 -0 -0 -0 -0 -0 -0 -0 -0 -0 -0 -0 -0 -0 -0 -0 -0 -0 -0 -30
-0 -0 -0 -0 -0 -0 -0 -0 -0 -0 -0 -0 -0 -0 -0 -0 -0 -0 -0 -0 -0 -0 -0 -0 -0 -0 -0 -0 -0 -0 -0 -0 -0 -0 -0 -59 -0 -0 -0 -0 -0 -13 -167 -169
-0 -0 -0 -0 -0 -0 -0 -0 -0 -0 -0 -0 -0 -0 -0 -0 -0 -0 -0 -0 -0 -0 -0 -0 -0 -0 -0 -0 -0 -0 -0 -0 -0 -0 -0 -0 -45 -154 -145 -135 -160 -173 -149 -144
-0 -0 -0 -0 -0 -0 -0 -0 -0 -0 -0 -0 -0 -0 -0 -0 -0 -0 -0 -0 -0 -0 -0 -0 -0 -0 -0 -0 -0 -0 -0 -0 -0 -0 -0 -0 -0 -0 -5 -208 -194 -202 -148 -145
-0 -0 -0 -0 -0 -0 -0 -0 -0 -0 -0 -0 -0 -0 -0 -0 -0 -0 -0 -0 -0 -0 -0 -0 -0 -0 -0 -0 -0 -0 -0 -0 -0 -0 -0 -0 -0 -0 -0 -0 -0 -235 -202 -195
-0 -0 -0 -0 -0 -0 -0 -0 -0 -0 -0 -0 -0 -0 -0 -0 -0 -0 -0 -0 -0 -0 -0 -0 -0 -0 -0 -0 -0 -0 -0 -0 -0 -0 -0 -0 -0 -0 -0 -0 -0 -3 -0 -0
-0 -0 -0 -0 -0 -0 -0 -0 -0 -0 -0 -0 -0 -0 -0 -0 -0 -0 -0 -0 -0 -0 -0 -0 -0 -0 -0 -0 -0 -0 -0 -0 -0 -0 -0 -0 -0 -0 -0 -0 -0 -0 -0 -0
-0 -0 -0 -0 -0 -0 -0 -0 -0 -0 -0 -0 -0 -0 -0 -0 -0 -0 -0 -0 -0 -0 -0 -0 -0 -0 -0 -0 -0 -0 -0 -0 -0 -0 -0 -0 -0 -0 -0 -0 -0 -0 -0 -0
-0 -0 -0 -0 -0 -0 -0 -0 -0 -0 -0 -0 -0 -0 -0 -0 -0 -0 -0 -0 -0 -0 -0 -0 -0 -0 -0 -0 -0 -0 -0 -0 -0 -0 -0 -0 -0 -0 -0 -0 -0 -0 -0 -0
-0 -0 -0 -0 -0 -0 -0 -0 -0 -0 -0 -0 -0 -0 -0 -0 -0 -0 -0 -0 -0 -0 -0 -0 -0 -0 -0 -0 -0 -0 -0 -0 -0 -0 -0 -0 -0 -0 -0 -0 -0 -0 -0 -0
-0 -0 -0 -0 -0 -0 -0 -0 -0 -0 -0 -0 -0 -0 -0 -0 -0 -0 -0 -0 -0 -0 -0 -0 -0 -0 -0 -0 -0 -0 -0 -0 -0 -0 -0 -0 -0 -0 -0 -0 -0 -0 -0 -0
-0 -0 -0 -0 -0 -0 -0 -0 -0 -0 -0 -0 -0 -0 -0 -0 -0 -0 -0 -0 -0 -0 -0 -0 -0 -0 -0 -0 -0 -0 -0 -0 -0 -0 -0 -0 -0 -0 -0 -0 -0 -0 -0 -0
-0 -0 -0 -0 -0 -0 -0 -0 -0 -0 -0 -0 -0 -0 -0 -0 -0 -0 -0 -0 -0 -0 -0 -0 -0 -0 -0 -0 -0 -0 -0 -0 -0 -0 -0 -0 -0 -0 -0 -0 -0 -0 -0 -0
-0 -0 -0 -0 -0 -0 -0 -0 -0 -0 -0 -0 -0 -0 -0 -0 -0 -0 -0 -0 -0 -0 -0 -0 -0 -0 -0 -0 -0 -0 -0 -0 -0 -0 -0 -0 -0 -0 -0 -0 -0 -0 -0 -0
-0 -0 -0 -0 -0 -0 -0 -0 -0 -0 -0 -0 -0 -0 -0 -0 -0 -0 -0 -0 -0 -0 -0 -0 -0 -0 -0 -0 -0 -0 -0 -0 -0 -0 -0 -0 -0 -0 -0 -0 -0 -0 -0 -0
-0 -0 -0 -0 -0 -0 -0 -0 -0 -0 -0 -0 -0 -0 -0 -0 -0 -0 -0 -0 -0 -0 -0 -0 -0 -0 -0 -0 -0 -0 -0 -0 -0 -0 -0 -0 -0 -0 -0 -0 -0 -0 -0 -0
-0 -0 -0 -0 -0 -0 -0 -0 -0 -0 -0 -0 -0 -0 -0 -0 -0 -0 -0 -0 -0 -0 -0 -0 -0 -0 -0 -0 -0 -0 -0 -0 -0 -0 -0 -0 -0 -0 -0 -0 -0 -0 -0 -0
-0 -0 -0 -0 -0 -0 -0 -0 -0 -0 -0 -0 -0 -0 -0 -0 -0 -0 -0 -0 -0 -0 -0 -0 -0 -0 -0 -0 -0 -0 -0 -0 -0 -0 -0 -0 -0 -0 -0 -0 -0 -0 -0 -0
Wind_Speed
36 42 53 44 42 36 31 35 34 31 25 20 27 32 41 28 23 24 26 26 21 12 10 11 15 14 15 16 14 16 15 12 14 12 13 10 8 7 7 6 6 6 6 7
42 58 44 37 35 38 36 37 38 28 24 24 29 37 34 26 23 19 20 22 22 17 14 11 11 14 16 17 15 16 16 14 15 12 11 9 9 9 8 8 9 10 10 8
53 47 36 38 39 40 39 40 36 33 25 26 26 36 36 36 42 42 28 15 21 23 17 14 12 14 15 16 17 17 16 15 14 13 10 10 11 12 11 12 13 12 11 11
47 37 41 40 42 37 46 30 31 29 27 32 27 34 29 29 29 16 16 13 20 23 19 16 15 15 16 17 15 15 16 15 15 14 13 14 13 13 13 13 13 15 14 14
50 48 44 44 44 34 38 28 27 26 27 29 31 32 31 28 30 20 13 11 16 15 14 14 17 17 18 14 15 16 16 16 16 16 16 15 15 16 16 16 16 16 16 16
38 32 34 40 32 32 24 23 23 25 29 41 36 33 36 30 28 24 20 10 10 13 17 14 15 17 16 16 17 15 16 17 17 17 18 18 18 18 19 19 19 18 17 17
38 37 34 29 32 27 30 32 34 36 37 44 32 34 41 26 24 17 20 21 17 9 11 14 16 14 14 16 18 17 18 20 16 16 18 19 20 20 21 20 21 21 20 20
52 53 45 35 36 40 36 36 39 43 39 37 31 37 35 30 33 28 24 23 19 16 13 11 14 15 17 18 18 17 16 18 17 17 19 19 18 18 20 21 22 23 23 22
49 47 35 38 34 32 38 42 29 32 32 35 36 39 39 30 28 26 22 21 21 20 19 15 11 12 12 13 16 18 18 17 15 16 16 16 18 18 18 20 23 26 25 24
39 44 37 33 27 32 38 31 35 33 41 45 39 39 38 29 27 25 24 22 20 17 16 16 13 13 14 13 13 15 16 17 17 17 18 19 19 20 21 22 21 24 26 26
31 37 37 33 43 40 37 43 38 35 35 39 39 39 29 29 18 17 17 16 15 15 14 14 14 15 14 13 12 13 15 17 18 19 19 19 20 20 22 23 23 24 26 27
30 34 40 39 32 36 38 40 37 42 44 40 39 40 23 20 16 13 11 11 11 12 10 9 11 12 12 12 13 14 16 17 18 18 18 19 21 23 24 26 27 27 29 29
31 35 43 41 34 31 40 40 38 34 32 42 43 42 24 18 15 13 12 12 9 7 8 11 13 14 14 14 14 14 14 16 18 20 21 22 24 25 27 28 28 28 29 30
31 33 45 53 52 37 40 37 36 37 42 41 44 37 27 22 21 15 14 12 10 11 13 15 16 17 16 17 19 20 20 20 19 19 20 22 22 23 25 26 27 27 28 29
36 39 36 36 33 33 35 36 35 38 37 40 43 38 29 24 21 17 14 12 13 15 17 18 19 17 20 21 22 22 22 22 21 22 23 24 25 23 23 22 23 23 23 25
36 37 33 34 31 32 34 36 36 37 37 38 35 36 28 25 24 19 18 18 18 19 18 20 23 22 25 24 25 24 23 23 23 24 26 26 26 25 25 25 24 23 25 26
39 36 35 40 29 28 39 38 38 35 33 32 35 32 27 28 29 27 21 20 22 23 24 25 23 23 25 26 26 26 25 22 22 23 23 23 22 22 23 24 25 26 27 27
41 35 34 34 26 44 35 33 33 33 34 34 37 31 27 28 25 25 24 26 27 25 26 24 23 22 23 24 24 24 22 21 21 22 23 23 23 23 23 23 24 25 26 27
33 34 37 35 39 35 37 33 31 29 35 38 41 36 31 28 29 33 28 27 29 28 26 24 22 23 23 24 23 20 19 20 21 22 24 25 25 26 26 25 25 25 26 27
30 29 34 37 40 46 40 30 26 26 46 34 38 39 36 32 35 34 29 28 26 24 22 21 20 20 21 21 19 18 19 20 21 22 23 23 22 23 24 26 26 26 27 27
34 29 35 36 38 41 36 22 15 24 31 26 31 30 30 30 30 30 24 25 22 21 20 19 18 18 18 18 15 15 17 19 20 21 21 21 22 24 24 24 24 25 27 27
35 33 33 32 36 46 21 21 28 24 19 16 15 16 19 24 24 23 21 20 19 18 17 16 15 15 15 14 12 13 15 18 18 18 19 21 22 23 23 23 23 23 23 24
34 33 30 30 34 22 20 25 26 17 16 13 9 10 10 12 15 14 15 15 15 14 13 13 13 13 14 13 11 12 15 16 16 18 20 20 21 22 22 23 24 24 23 24
32 28 28 26 29 24 19 21 22 21 18 16 14 14 14 14 13 13 12 11 11 10 8 8 9 10 10 12 13 14 15 16 17 18 20 21 21 23 24 24 23 24 25 27
29 27 30 33 29 25 26 24 21 20 18 15 13 13 12 10 11 11 10 9 9 9 9 10 9 9 11 12 14 16 17 16 16 18 20 22 22 23 24 25 24 25 25 25
28 31 36 38 28 26 27 25 22 21 21 17 18 18 14 12 12 12 12 11 10 9 9 10 10 11 12 13 15 17 18 17 16 19 22 23 24 24 24 25 26 26 26 27
Wind_Direction
229 230 229 234 236 244 248 246 250 255 259 260 260 254 230 264 269 269 268 266 259 234 216 196 185 185 181 181 183 183 184 187 183 187 184 194 211 237 236 248 253 257 277 283
228 230 232 235 238 241 246 246 246 257 255 258 261 253 258 266 269 273 275 271 267 252 247 220 202 191 191 189 191 192 193 194 196 203 211 247 240 256 242 254 261 271 274 273
227 234 230 231 235 236 241 245 248 251 253 259 266 262 260 258 234 247 272 269 267 259 242 241 222 204 199 198 201 201 202 205 206 213 234 249 269 273 261 264 270 267 269 268
233 237 226 230 233 235 237 247 253 250 243 254 259 264 267 269 269 255 220 230 204 257 253 226 219 216 213 209 216 214 216 217 216 216 224 219 231 238 250 253 264 271 269 269
226 225 222 227 230 234 244 249 251 247 248 256 257 264 266 272 270 275 238 234 206 211 231 238 220 217 212 229 232 230 233 228 226 229 232 237 245 260 272 272 272 269 271 268
232 232 229 232 234 231 238 239 247 256 257 254 254 260 263 266 275 279 279 263 213 209 208 214 206 205 211 208 205 226 235 236 237 238 239 244 251 263 270 273 273 274 272 272
225 227 232 226 227 230 233 233 241 245 247 252 257 256 257 270 273 284 284 284 280 257 217 212 212 214 216 208 203 206 209 212 226 234 238 243 252 261 265 268 273 277 278 280
218 224 224 226 227 228 226 231 240 244 250 253 258 258 263 269 268 277 281 281 287 294 285 226 216 213 214 215 213 213 214 214 220 222 225 233 242 257 264 269 274 277 279 281
220 230 226 226 230 222 231 233 245 250 256 257 259 263 267 274 272 274 281 284 282 285 291 292 270 263 250 237 227 218 218 220 232 233 240 242 243 244 255 266 277 281 282 284
229 227 228 227 228 234 233 229 237 248 250 254 261 263 262 270 270 273 278 278 282 289 293 297 295 287 282 274 235 233 238 239 248 256 258 259 262 261 262 272 271 278 282 283
220 226 229 223 232 227 232 233 242 246 251 254 258 264 270 266 273 276 283 286 286 288 296 297 297 301 304 300 283 260 262 266 269 269 267 266 265 266 269 268 272 273 279 281
224 228 223 229 245 237 236 236 239 243 248 255 261 265 281 282 280 285 286 297 296 296 301 315 320 318 316 310 305 292 286 281 279 277 274 269 273 275 275 275 276 280 280 283
215 229 222 232 243 240 235 234 239 247 253 251 254 262 273 277 278 286 289 291 290 293 305 316 319 317 314 312 313 310 305 301 298 293 289 287 284 283 284 284 284 284 285 286
221 231 231 229 231 233 233 234 236 244 248 253 253 262 262 267 273 277 282 287 270 282 297 305 309 307 309 310 308 308 308 308 308 307 305 303 300 295 293 292 289 288 288 289
226 233 236 240 239 239 235 235 237 244 248 253 258 258 262 261 267 270 268 275 276 282 289 294 301 301 304 305 307 308 308 308 308 308 308 307 308 309 306 302 299 296 292 291
229 232 233 241 238 239 238 236 235 239 243 252 260 262 258 261 265 260 264 270 276 282 287 294 297 296 299 302 304 305 305 305 305 305 306 309 311 312 312 312 311 309 306 303
221 225 228 238 237 241 246 233 231 237 239 241 253 255 258 257 256 257 264 269 274 279 284 290 295 300 302 302 303 304 306 308 308 309 311 312 313 313 314 314 314 312 310 309
226 227 235 237 225 243 256 240 235 237 241 242 252 260 255 260 255 260 263 268 274 278 284 288 293 298 303 305 307 309 312 313 313 313 314 314 313 312 312 312 312 312 313 312
232 232 233 233 235 255 252 246 221 231 249 250 251 253 257 260 264 265 267 271 275 279 283 288 293 298 303 306 310 311 314 315 315 314 314 314 313 312 311 310 310 310 309 309
226 233 234 236 240 245 254 251 243 249 259 252 251 252 253 260 263 265 267 271 277 282 283 286 292 299 303 307 309 311 313 314 315 318 318 319 319 317 315 313 311 311 311 310
221 233 234 236 246 254 253 241 207 239 269 265 251 247 247 250 254 275 275 277 279 281 284 290 294 297 302 305 307 310 316 318 321 324 326 327 326 323 321 320 318 317 314 313
227 226 233 237 244 250 241 220 221 247 265 280 270 257 246 256 266 268 271 272 276 282 287 291 294 299 303 304 308 316 322 324 330 334 335 335 334 331 330 327 325 325 323 320
231 230 229 234 246 277 242 241 236 248 251 270 286 280 263 261 267 266 269 274 283 287 290 289 288 294 302 308 316 324 325 331 336 337 338 341 340 338 337 334 332 331 330 324
240 233 244 246 250 251 252 250 239 252 258 267 274 278 274 270 264 268 268 274 283 289 291 291 287 290 301 311 324 333 333 335 339 338 339 342 343 341 338 336 336 334 331 327
239 233 243 250 259 253 251 252 247 256 262 264 274 278 273 266 265 264 265 268 275 279 279 279 279 289 301 310 324 331 334 340 343 341 342 342 342 341 340 339 338 335 333 330
246 243 242 253 254 256 253 251 257 254 253 259 271 272 276 269 261 262 264 269 268 266 269 274 286 294 301 311 321 325 329 335 339 339 338 338 339 339 339 340 340 341 338 334